contact:dominique.lefevre@mio.osupytheas.fr, maurice.libes@osupytheas.fr
Project:EMSO Ligure-ouest http://www.emso-fr.org/EMSO-France
Sensor Aquadopp, line 04 Serial AQD8517 
DOI : "https://doi.org/10.17882/74513; https://doi.org/10.17882/83244" 
Title:EMSO Ligure Ouest : Data ligne ALBATROSS capteur AQUADOPP - deploiement 2021
Id,Date,Profondeur,Latitude,Longitude,X_East,Y_North,Z_Up,Amplitude_X,Amplitude_Y,Amplitude_Z,Batterie,SoundSpeed,Heading,Pitch,Roll,Pressure,Temperature,Speed,Direction
, , m, degrees North, degrees East, m.s-1, m.s-1,m.s-1, 1, 1, 1, Volt, m.s-1, degree, degree, degree, dbar, degree_C, m.s-1, degree
01,2021-12-04T21:30:00,500.0,42.79,6.0312,-0.08,-0.043,0.01,52.0,50.0,46.0,12.6,1506.0,130.3,-0.3,0.7,452.458,13.7,0.09,241.7
01,2021-12-04T22:00:00,500.0,42.79,6.0312,-0.081,-0.032,-0.008,53.0,46.0,48.0,12.6,1506.0,137.9,-0.1,0.6,452.421,13.69,0.087,248.4
01,2021-12-04T22:30:00,500.0,42.79,6.0312,-0.071,-0.047,0.011,50.0,46.0,47.0,12.6,1506.0,115.9,-0.1,0.6,452.386,13.71,0.085,236.5
01,2021-12-04T23:00:00,500.0,42.79,6.0312,-0.1,-0.051,0.022,51.0,46.0,47.0,12.6,1506.0,127.3,0.0,0.7,452.364,13.69,0.112,243.0
01,2021-12-04T23:30:00,500.0,42.79,6.0312,-0.09,-0.045,0.002,49.0,46.0,46.0,12.6,1506.0,144.8,-0.5,0.7,452.332,13.69,0.1,243.4
01,2021-12-05T00:00:00,500.0,42.79,6.0312,-0.086,-0.046,0.004,49.0,46.0,45.0,12.6,1506.0,139.2,-0.4,0.8,452.338,13.69,0.097,241.9
01,2021-12-05T00:30:00,500.0,42.79,6.0312,-0.09,-0.062,-0.009,52.0,48.0,47.0,12.6,1506.0,143.3,-0.3,0.8,452.318,13.69,0.109,235.4
01,2021-12-05T01:00:00,500.0,42.79,6.0312,-0.091,-0.045,0.006,51.0,47.0,48.0,12.6,1506.0,150.9,0.2,0.8,452.252,13.69,0.101,243.7
01,2021-12-05T01:30:00,500.0,42.79,6.0312,-0.087,-0.038,0.006,51.0,46.0,49.0,12.6,1506.0,154.0,-0.6,0.8,452.244,13.69,0.094,246.4
01,2021-12-05T02:00:00,500.0,42.79,6.0312,-0.092,-0.039,0.024,51.0,47.0,46.0,12.6,1506.0,153.4,0.2,0.8,452.246,13.68,0.099,247.0
01,2021-12-05T02:30:00,500.0,42.79,6.0312,-0.094,-0.043,0.009,50.0,47.0,47.0,12.6,1506.0,155.3,0.4,0.8,452.29,13.69,0.103,245.4
01,2021-12-05T03:00:00,500.0,42.79,6.0312,-0.084,-0.038,0.018,50.0,48.0,46.0,12.6,1506.0,150.2,-0.7,0.9,452.315,13.69,0.092,245.7
01,2021-12-05T03:30:00,500.0,42.79,6.0312,-0.099,-0.031,-0.012,50.0,47.0,47.0,12.6,1506.0,150.3,0.0,0.7,452.292,13.69,0.103,252.6
01,2021-12-05T04:00:00,500.0,42.79,6.0312,-0.1,-0.05,0.005,51.0,46.0,46.0,12.6,1506.0,158.4,0.0,0.7,452.345,13.69,0.111,243.4
01,2021-12-05T04:30:00,500.0,42.79,6.0312,-0.103,-0.049,0.009,51.0,47.0,47.0,12.6,1506.0,164.4,0.4,0.8,452.428,13.69,0.114,244.6
01,2021-12-05T05:00:00,500.0,42.79,6.0312,-0.095,-0.037,-0.013,52.0,48.0,46.0,12.6,1506.0,157.7,-0.3,0.7,452.418,13.69,0.101,248.7
01,2021-12-05T05:30:00,500.0,42.79,6.0312,-0.09,-0.051,0.014,54.0,47.0,49.0,12.6,1506.0,158.1,0.2,0.7,452.395,13.7,0.103,240.5
01,2021-12-05T06:00:00,500.0,42.79,6.0312,-0.102,-0.057,0.007,52.0,49.0,48.0,12.6,1506.0,154.0,0.6,0.7,452.452,13.71,0.116,240.8
01,2021-12-05T06:30:00,500.0,42.79,6.0312,-0.092,-0.041,0.013,53.0,49.0,48.0,12.6,1506.0,142.2,0.2,0.8,452.474,13.7,0.1,246.0
01,2021-12-05T07:00:00,500.0,42.79,6.0312,-0.104,-0.032,0.014,51.0,49.0,51.0,12.6,1506.0,138.8,-0.2,0.8,452.476,13.71,0.108,252.9
01,2021-12-05T07:30:00,500.0,42.79,6.0312,-0.086,-0.038,0.006,53.0,50.0,50.0,12.6,1506.0,134.4,-0.3,0.8,452.533,13.7,0.094,246.2
01,2021-12-05T08:00:00,500.0,42.79,6.0312,-0.1,-0.027,0.0,52.0,49.0,49.0,12.6,1506.0,132.4,-0.5,0.8,452.506,13.7,0.103,254.9
01,2021-12-05T08:30:00,500.0,42.79,6.0312,-0.101,-0.039,-0.004,52.0,48.0,52.0,12.6,1506.0,131.1,-0.4,0.7,452.554,13.69,0.108,248.9
01,2021-12-05T09:00:00,500.0,42.79,6.0312,-0.085,-0.058,0.015,52.0,49.0,49.0,12.6,1506.0,114.4,0.0,0.7,452.52,13.69,0.102,235.7
01,2021-12-05T09:30:00,500.0,42.79,6.0312,-0.09,-0.036,0.018,54.0,50.0,53.0,12.6,1505.9,129.2,0.1,0.8,452.497,13.67,0.096,248.2
01,2021-12-05T10:00:00,500.0,42.79,6.0312,-0.079,-0.041,0.0,53.0,51.0,50.0,12.6,1505.8,124.8,-0.3,0.7,452.546,13.64,0.088,242.6
01,2021-12-05T10:30:00,500.0,42.79,6.0312,-0.089,-0.019,-0.011,53.0,48.0,49.0,12.6,1505.9,132.0,-0.4,0.7,452.489,13.65,0.091,257.9
01,2021-12-05T11:00:00,500.0,42.79,6.0312,-0.078,-0.042,0.005,56.0,49.0,50.0,12.6,1505.9,120.3,-0.2,0.7,452.366,13.66,0.088,241.7
01,2021-12-05T11:30:00,500.0,42.79,6.0312,-0.084,-0.059,-0.003,56.0,49.0,51.0,12.6,1505.9,119.4,0.1,0.7,452.45,13.66,0.102,234.9
01,2021-12-05T12:00:00,500.0,42.79,6.0312,-0.088,-0.056,0.008,55.0,50.0,50.0,12.6,1505.9,133.6,-0.4,0.7,452.377,13.65,0.104,237.5
01,2021-12-05T12:30:00,500.0,42.79,6.0312,-0.083,-0.075,0.0,54.0,49.0,51.0,12.6,1505.9,126.0,0.2,0.8,452.428,13.65,0.111,227.9
01,2021-12-05T13:00:00,500.0,42.79,6.0312,-0.08,-0.08,0.01,57.0,50.0,51.0,12.6,1505.9,128.3,-0.3,0.7,452.421,13.65,0.113,225.0
01,2021-12-05T13:30:00,500.0,42.79,6.0312,-0.088,-0.096,0.001,56.0,52.0,54.0,12.6,1505.9,128.7,0.6,0.8,452.395,13.65,0.13,222.5
01,2021-12-05T14:00:00,500.0,42.79,6.0312,-0.113,-0.074,0.01,55.0,51.0,51.0,12.6,1506.0,134.8,-0.8,1.0,452.39,13.69,0.135,236.8
01,2021-12-05T14:30:00,500.0,42.79,6.0312,-0.112,-0.074,0.002,59.0,56.0,54.0,12.6,1506.0,137.7,-0.5,0.9,452.363,13.69,0.134,236.5
01,2021-12-05T15:00:00,500.0,42.79,6.0312,-0.141,-0.066,0.012,63.0,57.0,59.0,12.6,1506.0,145.6,-0.4,0.8,452.426,13.71,0.155,244.9
01,2021-12-05T15:30:00,500.0,42.79,6.0312,-0.131,-0.051,-0.012,61.0,58.0,57.0,12.6,1506.0,147.9,0.4,0.7,452.423,13.72,0.14,248.7
01,2021-12-05T16:00:00,500.0,42.79,6.0312,-0.121,-0.07,0.007,61.0,57.0,57.0,12.6,1506.0,133.2,-0.2,1.0,452.406,13.71,0.139,239.9
01,2021-12-05T16:30:00,500.0,42.79,6.0312,-0.134,-0.038,0.003,62.0,58.0,58.0,12.6,1506.0,148.2,-0.7,1.1,452.473,13.71,0.139,254.2
01,2021-12-05T17:00:00,500.0,42.79,6.0312,-0.126,-0.042,0.01,63.0,57.0,59.0,12.6,1506.0,150.3,0.8,1.0,452.502,13.7,0.132,251.6
01,2021-12-05T17:30:00,500.0,42.79,6.0312,-0.13,-0.033,0.003,61.0,56.0,58.0,12.6,1506.0,149.8,-0.2,0.8,452.458,13.7,0.134,255.8
01,2021-12-05T18:00:00,500.0,42.79,6.0312,-0.114,-0.036,0.001,61.0,55.0,58.0,12.6,1506.0,145.3,0.1,1.0,452.536,13.71,0.119,252.5
01,2021-12-05T18:30:00,500.0,42.79,6.0312,-0.101,-0.067,0.002,62.0,58.0,57.0,12.6,1506.0,133.2,0.4,0.6,452.556,13.71,0.121,236.4
01,2021-12-05T19:00:00,500.0,42.79,6.0312,-0.1,-0.051,0.018,57.0,52.0,54.0,12.6,1506.0,144.9,-0.3,0.9,452.505,13.69,0.112,243.0
01,2021-12-05T19:30:00,500.0,42.79,6.0312,-0.084,-0.045,0.013,56.0,52.0,53.0,12.6,1506.0,140.3,0.1,0.7,452.483,13.68,0.095,241.8
01,2021-12-05T20:00:00,500.0,42.79,6.0312,-0.084,-0.044,0.005,57.0,51.0,52.0,12.6,1506.0,146.0,0.3,0.7,452.417,13.68,0.094,242.4
01,2021-12-05T20:30:00,500.0,42.79,6.0312,-0.078,-0.05,-0.004,58.0,53.0,52.0,12.6,1506.0,141.7,-0.9,0.8,452.4,13.68,0.092,237.3
01,2021-12-05T21:00:00,500.0,42.79,6.0312,-0.094,-0.046,-0.009,58.0,55.0,53.0,12.6,1506.0,145.9,0.3,0.8,452.462,13.7,0.104,243.9
